Waarnemingen

Advertentie
Mijn weer
Lahr, Duitsland (10805): temperatuur & dauwpunt: 12.02.2019 01:00:00 - 18.02.2019 01:00:00 (CET)Lahr, Duitsland (10805): temperatuur 5cm & temperatuur -5cm: 12.02.2019 01:00:00 - 18.02.2019 01:00:00 (CET)Lahr, Duitsland (10805): temperatuur -20cm & temperatuur -100cm: 12.02.2019 01:00:00 - 18.02.2019 01:00:00 (CET)Lahr, Duitsland (10805): windsnelheid & windstoten: 12.02.2019 01:00:00 - 18.02.2019 01:00:00 (CET)Lahr, Duitsland (10805): windrichting: 12.02.2019 01:00:00 - 18.02.2019 01:00:00 (CET)Lahr, Duitsland (10805): luchtdruk: 12.02.2019 01:00:00 - 18.02.2019 01:00:00 (CET)Lahr, Duitsland (10805): zicht: 12.02.2019 01:00:00 - 18.02.2019 01:00:00 (CET)Lahr, Duitsland (10805): Zonneschijnduur: 12.02.2019 01:00:00 - 18.02.2019 01:00:00 (CET)Lahr, Duitsland (10805): neerslag: 12.02.2019 01:00:00 - 18.02.2019 01:00:00 (CET)
Datum & Tijd tt [°C] td [°C] tt 5cm [°C] tt -5cm [°C] tt -20cm [°C] tt -100cm [°C] ff [km/u] ff [kn] fx [km/u] fx [kn] dd ppp [hPa] vv [km] sd [min] rr [mm]
18.02.2019 01:00:00 1,2 -2,2 -1,4 1,4 5,2 5,9 5 3 10 5 ZW 1023,9 37 0 0,0
18.02.2019 00:00:00 1,6 -0,9 -1,1 2,0 5,5 5,9 5 3 8 5 W 1023,8 28 0 0,0
17.02.2019 23:00:00 2,3 -0,5 -0,3 2,7 5,9 5,9 4 2 11 6 NNW 1023,8 25 0 0,0
17.02.2019 22:00:00 4,5 -0,2 0,8 3,6 6,3 5,9 6 3 13 7 Z 1023,6 29 0 0,0
17.02.2019 21:00:00 5,1 0,4 1,0 4,7 6,6 5,9 6 4 10 5 ZW 1023,4 25 0 0,0
17.02.2019 20:00:00 7,1 1,6 3,7 6,0 6,8 5,9 9 5 18 10 NW 1023,0 31 0 0,0
17.02.2019 19:00:00 8,8 2,8 3,4 7,9 6,9 5,9 4 2 9 5 ZO 1022,7 30 0 0,0
17.02.2019 18:00:00 12,7 4,2 6,6 10,7 6,7 5,9 5 3 7 4 ONO 1022,2 39 32 0,0
17.02.2019 17:00:00 16,1 5,8 13,7 13,2 6,2 5,9 4 2 7 4 NNO 1022,2 54 60 0,0
17.02.2019 16:00:00 18,3 1,5 16,2 14,6 5,4 5,9 3 2 7 4 ZW 1022,4 61 60 0,0
17.02.2019 15:00:00 17,1 0,4 16,9 14,5 4,6 5,9 3 1 8 5 ZW 1023,0 44 60 0,0
17.02.2019 14:00:00 15,0 0,3 16,7 13,2 3,7 5,9 3 2 7 4 W 1024,0 30 60 0,0
17.02.2019 13:00:00 13,2 0,2 14,7 10,5 3,1 5,9 3 2 6 3 O 1024,8 32 60 0,0
17.02.2019 12:00:00 12,0 -0,9 13,7 5,5 2,9 5,9 3 1 9 5 Z 1025,8 29 60 0,0
17.02.2019 11:00:00 9,1 0,1 9,9 0,6 2,9 5,9 9 5 14 7 ZW 1026,1 10 60 0,0
17.02.2019 10:00:00 7,4 0,1 3,0 0,6 3,0 5,9 0 0 9 5 N 1026,4 10 60 0,0
17.02.2019 09:00:00 1,5 -2,0 -1,0 0,6 3,1 5,9 2 1 6 3 ZZO 1027,0 20 54 0,0
17.02.2019 08:00:00 -1,6 -2,9 -3,7 0,7 3,3 5,9 4 2 5 3 N 1027,2 22 0 0,0
17.02.2019 07:00:00 -2,1 -3,9 -4,3 0,7 3,4 5,9 3 2 7 4 ZO 1027,0 17 0 0,0
17.02.2019 06:00:00 -0,8 -2,1 -2,2 0,8 3,5 5,9 3 2 9 5 ZO 1027,2 15 0 0,0
17.02.2019 05:00:00 -2,0 -3,2 -3,9 0,9 3,7 5,9 4 2 8 4 W 1027,0 13 0 0,0
17.02.2019 04:00:00 -0,9 -2,1 -3,2 0,9 3,9 5,9 3 2 4 2 WZW 1027,2 12 0 0,0
17.02.2019 03:00:00 0,0 -1,0 -2,3 1,0 4,1 5,9 3 2 5 3 WZW 1027,4 11 0 0,0
17.02.2019 02:00:00 1,0 -0,5 -1,0 1,1 4,4 5,9 3 2 8 4 ONO 1027,4 7 0 0,0
17.02.2019 01:00:00 0,6 -0,9 -2,8 1,3 4,7 5,9 2 1 7 4 ONO 1027,5 14 0 0,0
17.02.2019 00:00:00 0,9 -0,6 -1,7 1,7 5,1 5,9 6 3 8 4 W 1027,5 14 0 0,0
16.02.2019 23:00:00 2,8 0,0 -1,0 2,4 5,4 5,9 2 1 7 4 NNO 1027,5 17 0 0,0
16.02.2019 22:00:00 4,0 1,1 -1,3 3,1 5,7 5,9 4 2 6 4 Z 1027,6 15 0 0,0
16.02.2019 21:00:00 4,2 2,3 0,1 4,1 6,0 5,9 4 2 6 4 W 1027,6 13 0 0,0
16.02.2019 20:00:00 5,8 2,1 1,2 5,4 6,2 5,9 8 4 4 2 OZO 1027,6 10 0 0,0
16.02.2019 19:00:00 6,9 4,1 1,9 7,1 6,2 5,9 3 2 5 3 ZW 1027,8 13 0 0,0
16.02.2019 18:00:00 11,9 4,0 5,4 9,8 6,0 5,9 4 2 6 4 O 1027,0 10 30 0,0
16.02.2019 17:00:00 14,5 6,7 12,5 12,2 5,5 5,9 5 3 8 4 NO 1026,9 23 60 0,0
16.02.2019 16:00:00 15,3 2,7 14,7 13,3 4,8 5,9 3 2 6 4 NNO 1027,2 24 60 0,0
16.02.2019 15:00:00 14,5 2,0 15,4 13,2 4,0 5,9 5 3 9 5 NO 1027,7 26 60 0,0
16.02.2019 14:00:00 13,5 2,1 15,1 11,9 3,2 5,9 4 2 8 4 NNW 1028,3 19 60 0,0
16.02.2019 13:00:00 11,9 0,6 14,9 8,7 2,7 5,9 4 2 11 6 WZW 1029,1 17 60 0,0
16.02.2019 12:00:00 10,0 1,5 11,7 2,5 2,6 5,9 5 3 11 6 - 1029,9 10 60 0,0
16.02.2019 11:00:00 7,4 0,0 8,8 0,5 2,7 5,9 11 6 14 7 ZZW 1029,9 10 60 0,0
16.02.2019 10:00:00 5,5 -0,2 2,1 0,5 2,7 5,9 8 4 16 9 Z 1030,4 20 60 0,0
16.02.2019 09:00:00 0,7 -1,0 -1,1 0,5 2,8 5,9 5 3 10 5 WZW 1030,9 10 53 0,0
16.02.2019 08:00:00 -1,8 -2,6 -3,4 0,5 2,9 5,9 2 1 8 4 ZO 1030,8 16 0 0,0
16.02.2019 07:00:00 -1,4 -2,5 -3,8 0,6 3,0 5,9 7 4 10 5 WZW 1030,4 18 0 0,0
16.02.2019 06:00:00 -1,0 -1,5 -3,4 0,7 3,1 5,9 4 2 6 4 OZO 1030,5 9 0 0,0
16.02.2019 05:00:00 -1,4 -1,6 -3,9 0,7 3,3 5,9 6 3 7 4 W 1030,3 4,8 0 0,0
16.02.2019 04:00:00 -1,1 -1,4 -3,1 0,8 3,4 5,9 3 2 6 3 ZO 1030,5 5 0 0,0
16.02.2019 03:00:00 -0,8 -1,2 -2,4 0,8 3,6 5,9 0 0 6 3 N 1030,5 7 0 0,0
16.02.2019 02:00:00 -0,5 -1,0 -2,6 0,9 3,8 5,9 3 1 10 6 ONO 1030,5 7 0 0,0
16.02.2019 01:00:00 -0,2 -0,8 -3,2 1,0 4,0 5,9 5 3 7 4 W 1030,6 9 0 0,0
16.02.2019 00:00:00 -0,1 -0,6 -2,1 1,1 4,3 5,9 4 2 7 4 WZW 1030,6 8 0 0,0
15.02.2019 23:00:00 0,9 0,0 -1,5 1,3 4,6 5,9 6 3 11 6 ZW 1030,8 8 0 0,0
15.02.2019 22:00:00 1,4 0,2 -1,8 2,0 5,0 5,9 3 1 4 2 W 1030,8 9 0 0,0
15.02.2019 21:00:00 1,9 0,4 -1,4 2,9 5,3 5,9 3 2 4 2 W 1030,9 9 0 0,0
15.02.2019 20:00:00 3,6 1,6 -0,4 4,1 5,5 5,9 4 2 6 4 ZZO 1031,1 10 0 0,0
15.02.2019 19:00:00 5,3 2,4 0,5 5,7 5,5 5,9 5 3 5 3 OZO 1031,1 10 0 0,0
15.02.2019 18:00:00 8,5 2,4 4,0 8,2 5,3 5,9 5 3 6 3 N 1030,7 14 27 0,0
15.02.2019 17:00:00 10,8 3,3 9,3 10,5 4,9 5,9 4 2 6 4 NW 1030,6 10 60 0,0
15.02.2019 16:00:00 11,1 1,5 10,8 11,6 4,2 5,9 4 2 10 6 - 1031,1 10 60 0,0
15.02.2019 15:00:00 10,4 0,8 11,6 11,4 3,5 5,9 5 3 9 5 - 1031,7 10 60 0,0
15.02.2019 14:00:00 9,1 2,2 11,1 9,8 2,9 5,9 4 2 10 6 - 1032,4 10 60 0,0
15.02.2019 13:00:00 7,7 1,7 10,4 6,6 2,6 5,9 4 2 8 4 - 1033,2 10 60 0,0
15.02.2019 12:00:00 6,5 1,2 8,4 0,7 2,6 5,9 2 1 6 3 ONO 1034,2 12 60 0,0
15.02.2019 11:00:00 3,4 0,2 3,9 0,4 2,6 5,9 2 1 5 3 - 1034,7 10 60 0,0
15.02.2019 10:00:00 1,7 -1,9 -0,4 0,4 2,7 5,9 0 0 4 2 N 1035,1 10 60 0,0
15.02.2019 09:00:00 0,3 -2,1 -1,9 0,4 2,8 5,9 0 0 6 3 N 1035,5 10 50 0,0
15.02.2019 08:00:00 -2,3 -2,8 -4,2 0,5 2,9 5,9 3 2 4 2 ZW 1035,4 9 0 0,0
15.02.2019 07:00:00 -2,7 -3,2 -4,3 0,6 3,0 5,9 0 0 4 2 N 1035,0 10 0 0,0
15.02.2019 06:00:00 -2,4 -2,8 -4,1 0,6 3,1 6,0 5 3 8 5 ZW 1034,9 8 0 0,0
15.02.2019 05:00:00 -3,0 -4,0 -4,6 0,7 3,2 6,0 3 2 8 4 Z 1035,0 10 0 0,0
15.02.2019 04:00:00 -1,6 -2,1 -3,4 0,8 3,4 6,0 7 4 9 5 WZW 1034,9 8 0 0,0
15.02.2019 03:00:00 -0,8 -1,4 -2,6 0,8 3,6 6,0 8 4 11 6 ZZW 1035,2 13 0 0,0
15.02.2019 02:00:00 -0,8 -1,1 -3,2 0,9 3,8 6,0 3 2 4 2 WNW 1035,4 7 0 0,0
15.02.2019 01:00:00 -0,6 -1,1 -3,5 1,0 4,0 6,0 0 0 6 3 N 1035,7 7 0 0,0
15.02.2019 00:00:00 0,2 -0,5 -2,5 1,2 4,3 6,0 3 1 9 5 ONO 1035,6 9 0 0,0
14.02.2019 23:00:00 0,4 -0,9 -1,5 1,4 4,6 6,0 5 3 9 5 ZW 1035,6 12 0 0,0
14.02.2019 22:00:00 2,5 0,9 -1,5 2,1 4,9 6,0 3 1 7 4 Z 1035,8 12 0 0,0
14.02.2019 21:00:00 3,1 1,2 -1,0 3,1 5,1 6,0 5 3 6 4 ZW 1035,5 12 0 0,0
14.02.2019 20:00:00 5,1 1,9 0,1 4,3 5,3 6,0 2 1 8 4 OZO 1035,6 10 0 0,0
14.02.2019 19:00:00 6,1 2,7 1,7 5,9 5,3 6,0 8 4 11 6 N 1035,5 10 0 0,0
14.02.2019 18:00:00 8,7 2,0 6,2 8,2 5,1 6,0 8 4 7 4 N 1034,9 10 27 0,0
14.02.2019 17:00:00 10,2 2,4 9,2 10,0 4,7 6,0 4 2 7 4 N 1034,9 10 60 0,0
14.02.2019 16:00:00 10,2 0,8 10,2 10,9 4,1 6,0 5 3 10 5 N 1035,4 20 60 0,0
14.02.2019 15:00:00 9,7 1,7 10,9 10,7 3,4 6,0 8 4 14 8 N 1036,1 10 60 0,0
14.02.2019 14:00:00 9,0 0,5 11,0 9,4 2,8 6,0 5 3 14 7 NNW 1036,7 10 60 0,0
14.02.2019 13:00:00 7,6 0,1 10,1 6,0 2,5 6,0 5 3 13 7 NO 1037,4 25 60 0,0
14.02.2019 12:00:00 6,1 -0,5 8,3 0,5 2,5 6,0 8 4 14 8 N 1038,4 10 60 0,0
14.02.2019 11:00:00 3,7 -1,1 4,9 0,4 2,5 6,0 4 2 6 4 - 1038,5 10 60 0,0
14.02.2019 10:00:00 1,5 -1,1 -0,1 0,4 2,6 6,0 0 0 6 3 N 1038,7 10 60 0,0
14.02.2019 09:00:00 -1,2 -2,6 -2,8 0,4 2,7 6,0 2 1 4 2 - 1038,7 10 39 0,0
14.02.2019 08:00:00 -2,5 -2,9 -4,4 0,5 2,7 6,0 0 0 6 3 N 1038,4 8 0 0,0
14.02.2019 07:00:00 -2,8 -3,5 -5,0 0,5 2,8 6,0 3 2 5 3 NNO 1037,8 16 0 0,0
14.02.2019 06:00:00 -2,6 -3,4 -4,1 0,6 2,9 6,0 2 1 11 6 NO 1037,7 15 0 0,0
14.02.2019 05:00:00 -0,6 -2,4 -3,6 0,6 3,0 6,0 5 3 15 8 Z 1037,5 34 0 0,0
14.02.2019 04:00:00 -1,9 -3,0 -4,0 0,7 3,1 6,0 6 4 8 5 W 1037,4 15 0 0,0
14.02.2019 03:00:00 -1,8 -2,6 -3,9 0,7 3,2 6,0 0 0 7 4 N 1037,7 13 0 0,0
14.02.2019 02:00:00 -1,9 -2,8 -3,9 0,8 3,4 6,0 7 4 8 4 WZW 1038,1 12 0 0,0
14.02.2019 01:00:00 -1,6 -2,2 -3,6 0,8 3,6 6,0 6 4 8 5 NNO 1038,2 5 0 0,0
14.02.2019 00:00:00 -0,1 -1,1 -3,2 0,9 3,8 6,0 0 0 9 5 N 1037,7 11 0 0,0
13.02.2019 23:00:00 1,4 -0,5 -2,1 0,9 4,1 6,0 8 4 12 6 ZZW 1037,5 17 0 0,0
13.02.2019 22:00:00 0,6 -1,0 -2,8 1,1 4,4 6,0 2 1 4 2 WNW 1037,3 15 0 0,0
13.02.2019 21:00:00 0,9 -0,3 -2,1 1,9 4,6 6,0 0 0 5 3 N 1037,6 12 0 0,0
13.02.2019 20:00:00 1,4 -0,7 -0,8 2,9 4,8 6,0 4 2 5 3 OZO 1037,7 10 0 0,0
13.02.2019 19:00:00 4,7 0,4 1,3 4,2 4,9 6,0 4 2 5 3 - 1037,1 10 0 0,0
13.02.2019 18:00:00 5,7 1,0 2,8 6,3 4,8 6,0 4 2 9 5 N 1036,6 20 24 0,0
13.02.2019 17:00:00 7,5 0,5 6,5 8,5 4,4 6,0 7 4 10 6 N 1036,6 30 60 0,0
13.02.2019 16:00:00 8,0 0,2 8,0 9,7 3,9 6,0 8 4 13 7 N 1036,6 30 60 0,0
13.02.2019 15:00:00 7,2 -0,3 8,3 9,5 3,3 6,0 8 4 14 8 N 1037,1 24 60 0,0
13.02.2019 14:00:00 6,8 -0,4 9,0 8,1 2,8 6,0 8 4 14 8 N 1037,5 33 60 0,0
13.02.2019 13:00:00 5,5 -1,3 7,5 4,1 2,6 6,0 4 2 8 4 NNO 1038,0 26 60 0,0
13.02.2019 12:00:00 3,6 -0,5 6,0 0,4 2,7 6,0 7 4 12 6 ONO 1038,6 21 60 0,0
13.02.2019 11:00:00 3,1 -1,0 3,3 0,4 2,7 6,0 8 4 14 8 ZZW 1038,7 18 60 0,0
13.02.2019 10:00:00 0,3 -2,1 -0,9 0,3 2,8 6,0 9 5 16 9 ZZW 1038,8 14 60 0,0
13.02.2019 09:00:00 -0,9 -2,5 -2,0 0,4 2,9 6,0 7 4 11 6 ZZW 1038,9 13 47 0,0
13.02.2019 08:00:00 -3,3 -3,8 -4,9 0,5 3,0 6,0 6 4 7 4 W 1039,2 8 0 0,0
13.02.2019 07:00:00 -2,6 -2,7 -3,7 0,5 3,1 6,0 3 2 6 3 O 1039,4 5 0 0,0
13.02.2019 06:00:00 -3,1 -3,3 -3,7 0,6 3,2 6,0 0 0 5 3 N 1039,2 0,1 0 0,0
13.02.2019 05:00:00 -2,6 -2,6 -4,6 0,7 3,3 6,0 5 3 6 3 NO 1038,8 0,6 0 0,0
13.02.2019 04:00:00 -2,2 -2,6 -4,3 0,7 3,4 6,0 3 2 6 3 N 1038,5 3,1 0 0,0
13.02.2019 03:00:00 -1,7 -2,2 -3,0 0,8 3,6 6,0 5 3 8 4 W 1038,8 8 0 0,0
13.02.2019 02:00:00 -1,8 -2,0 -3,9 0,8 3,7 6,0 3 2 6 3 NNO 1038,9 5 0 0,0
13.02.2019 01:00:00 -1,2 -1,6 -3,5 0,9 3,9 6,0 3 2 5 3 NNO 1038,8 7 0 0,0
13.02.2019 00:00:00 -0,4 -1,0 -3,0 1,0 4,2 6,0 3 2 4 2 O 1038,9 10 0 0,0
12.02.2019 23:00:00 -0,4 -0,9 -3,2 1,1 4,5 6,0 2 1 5 3 NW 1038,9 9 0 0,0
12.02.2019 22:00:00 -0,4 -1,1 -2,5 1,3 4,8 6,0 4 2 7 4 N 1038,8 14 0 0,0
12.02.2019 21:00:00 0,1 -1,0 -2,0 2,0 5,0 6,0 3 1 4 2 N 1038,6 15 0 0,0
12.02.2019 20:00:00 2,1 0,3 0,0 2,9 5,3 6,0 2 1 4 2 OZO 1038,1 6 0 0,0
12.02.2019 19:00:00 2,9 0,7 -0,3 3,9 5,4 6,0 4 2 6 3 ZZO 1037,7 17 0 0,0
12.02.2019 18:00:00 3,9 0,2 1,3 5,6 5,5 5,9 3 2 7 4 NNW 1037,2 27 0 0,0
12.02.2019 17:00:00 5,7 0,5 5,2 7,1 5,3 5,9 4 2 5 3 O 1037,1 30 0 0,0
12.02.2019 16:00:00 6,1 0,1 6,4 8,1 5,0 5,9 2 1 8 4 ZZW 1037,2 29 0 0,0
12.02.2019 15:00:00 5,9 0,3 6,7 8,8 4,6 5,9 2 1 9 5 - 1037,0 10 17 0,0
12.02.2019 14:00:00 5,7 1,2 7,5 8,5 4,2 5,9 4 2 9 5 - 1037,3 10 0 0,0
12.02.2019 13:00:00 5,1 1,3 6,8 7,5 3,8 5,9 3 2 13 7 ZZW 1037,5 15 13 0,0
12.02.2019 12:00:00 4,4 1,7 8,0 6,8 3,4 5,9 8 4 16 8 ZW 1037,4 11 54 0,0
12.02.2019 11:00:00 2,8 1,1 4,4 3,7 3,3 5,9 12 6 19 11 ZZW 1037,1 7 24 0,0
12.02.2019 10:00:00 1,9 1,1 1,9 1,9 3,4 5,9 11 6 17 9 ZW 1036,8 6 0 0,0
12.02.2019 09:00:00 1,4 0,9 0,8 1,1 3,5 5,9 5 3 10 5 ZZW 1036,0 8 0 0,0
12.02.2019 08:00:00 0,6 0,3 -0,6 0,7 3,6 5,9 8 4 10 6 ZZW 1035,2 10 0 0,0
12.02.2019 07:00:00 1,3 0,4 -0,1 1,2 3,8 5,9 8 4 13 7 ZW 1035,3 10 0 0,0
12.02.2019 06:00:00 1,9 1,1 0,8 1,7 3,9 5,9 9 5 11 6 ZZW 1034,9 10 0 0,0
12.02.2019 05:00:00 1,9 0,9 1,1 1,9 4,0 5,9 8 5 13 7 ZW 1034,8 8 0 0,0
12.02.2019 04:00:00 3,0 1,5 1,7 2,1 4,1 5,9 8 5 16 8 ZZW 1034,0 16 0 0,0
12.02.2019 03:00:00 3,1 1,7 1,8 2,5 4,1 5,9 9 5 16 9 ZZW 1033,8 13 0 0,0
12.02.2019 02:00:00 3,1 1,9 2,6 2,6 4,2 5,9 11 6 16 9 Z 1033,3 12 0 0,0
12.02.2019 01:00:00 2,7 1,8 2,2 2,3 4,3 5,9 7 4 11 6 ZZW 1032,9 25 0 0,0

tt = temperatuur
td = dauwpunt
tt 5cm = temperatuur 5cm
tt -5cm = temperatuur -5cm
tt -20cm = temperatuur -20cm
tt -100cm = temperatuur -100cm
ff = windsnelheid
fx = windstoten
dd = windrichting
ppp = luchtdruk
vv = zicht
sd = Zonneschijnduur
rr = neerslag

Weerstations in de omgeving